[[{"header":{"parameterUnit":"m.s-1","parameterCategory":1,"la1":30.2991,"la2":30.254,"lo1":-89.0895,"lo2":-89.0444,"dy":0.0017,"dx":0.0017,"nx":28,"ny":28,"refTime":"2023-10-25T21:00:00:Z","depth":0,"parameterNumber":2,"parameterNumberName":"U-component_of_WINDS"},"data":[0,0,0,0,0,0,0,0,0,0,0,0,0,0,0,0,0,0,0,0,0,0,0,0,0,0,0,0,0,0,0,0,0,0,0,0,0,0,0,0,0,0,0,0,0,0,0,0,0,0,0,0,0,0,0,0,0,0,-3.7363,-3.7364,0,-3.7529,-3.7531,-3.7533,-3.7537,-3.7535,-3.7533,-3.7531,-3.7705,-3.7712,-3.7718,0,0,0,0,0,0,0,0,0,0,0,0,0,-3.7053,-3.7058,-3.7362,-3.7365,-3.7367,-3.7529,-3.7531,-3.7533,-3.7538,-3.7535,-3.7533,-3.7531,-3.7703,-3.7711,-3.7719,0,0,0,0,0,0,0,0,0,0,0,0,0,-3.72,-3.706,-3.7362,-3.7388,-3.7392,-3.7528,-3.7531,-3.7534,-3.7538,-3.7535,-3.7532,-3.7529,-3.7701,-3.771,-3.772,-3.7842,0,0,-3.775,-3.7754,0,0,0,0,0,0,0,0,-3.7192,-3.7212,-3.7382,-3.7387,-3.7391,-3.7509,-3.7486,-3.7637,-3.7539,-3.7483,-3.7531,-3.7528,-3.7643,-3.7657,-3.7695,-3.785,-3.7858,-3.7751,-3.7757,-3.7761,-3.7764,0,0,0,0,0,0,0,-3.7182,-3.7204,-3.7428,-3.7385,-3.7391,-3.7393,-3.7411,-3.7514,-3.7578,-3.7488,-3.7488,-3.7508,-3.7645,-3.7686,-3.7699,-3.786,-3.7751,-3.7759,-3.7765,-3.7769,-3.8125,-3.8128,0,0,0,0,0,0,-3.7166,-3.7196,-3.7423,-3.7433,-3.7282,-3.7401,-3.7421,-3.7475,-3.7577,-3.759,-3.751,-3.7507,-3.7671,-3.7688,-3.7706,-3.7855,-3.7761,-3.777,-3.7776,-3.8121,-3.8126,-3.813,0,0,0,0,0,0,-3.7159,-3.7186,-3.7416,-3.7315,-3.7344,-3.741,-3.747,-3.748,-3.752,-3.7594,-3.7606,-3.754,-3.7669,-3.7692,-3.7808,-3.7861,-3.7775,-3.7783,-3.8117,-3.8123,-3.8128,-3.8156,0,0,0,0,0,0,-3.715,-3.7183,-3.7229,-3.7316,-3.735,-3.7515,-3.7474,-3.7485,-3.7537,-3.7535,-3.7625,-3.7637,-3.7668,-3.7793,-3.7818,-3.7873,-3.7791,-3.8113,-3.812,-3.8126,-3.815,-3.8161,-3.8171,0,0,0,0,0,-3.7139,-3.7231,-3.7231,-3.7259,-3.7408,-3.7518,-3.7537,-3.757,-3.7541,-3.7589,-3.7636,-3.7635,-3.7852,-3.7805,-3.7833,-3.7892,-3.8109,-3.8118,-3.8125,-3.8146,-3.8159,-3.817,0,0,0,0,0,0,-3.715,-3.7243,-3.7244,-3.7367,-3.7434,-3.7518,-3.7579,-3.7583,-3.7661,-3.7655,-3.7694,-3.7714,-3.783,-3.7873,-3.7819,-3.8016,-3.7978,-3.7991,-3.7983,-3.7997,-3.8007,-3.7994,-3.7799,0,0,0,0,0,-3.7166,-3.7246,-3.7324,-3.7424,-3.7458,-3.7513,-3.7562,-3.7581,-3.7653,-3.7682,-3.7738,-3.7808,-3.7893,-3.7948,-3.8029,-3.8157,-3.8177,-3.8212,-3.8222,-3.823,-3.8241,-3.8313,-3.8329,-3.8156,-3.8156,-3.8156,0,0,-3.7201,-3.7262,-3.731,-3.7428,-3.7483,-3.7566,-3.7537,-3.7625,-3.7688,-3.7696,-3.7808,-3.7852,-3.7934,-3.8056,-3.8113,-3.8096,-3.8294,-3.824,-3.8246,-3.8253,-3.8323,-3.8339,-3.8354,-3.8161,-3.816,-3.8159,0,0,-3.7307,-3.7361,-3.7451,-3.7506,-3.7589,-3.7625,-3.7647,-3.7731,-3.776,-3.7873,-3.7881,-3.7957,-3.8101,-3.8159,-3.8208,-3.8338,-3.834,-3.8364,-3.8417,-3.8486,-3.85,-3.8512,-3.8558,-3.8574,-3.8375,-3.8375,-3.8375,0,-3.734,-3.7464,-3.7497,-3.7586,-3.7638,-3.7649,-3.7741,-3.7793,-3.7899,-3.7935,-3.7914,-3.8096,-3.8152,-3.8289,-3.832,-3.836,-3.8386,-3.8353,-3.8495,-3.8508,-3.852,-3.8564,-3.8582,-3.8378,-3.8377,-3.8377,-3.8377,0,-3.7501,-3.7587,-3.765,-3.7751,-3.781,-3.7901,-3.7948,-3.8005,-3.802,-3.8059,-3.8176,-3.8243,-3.8339,-3.8373,-3.8389,-3.8513,-3.85,-3.8487,-3.8448,-3.8538,-3.858,-3.8598,-3.8381,-3.838,-3.8379,-3.8379,0,0,-3.7616,-3.7735,-3.7757,-3.7803,-3.7896,-3.7964,-3.8056,-3.8149,-3.8197,-3.827,-3.8348,-3.8471,-3.846,-3.8515,-3.8538,-3.8599,-3.8698,-3.8579,-3.8582,-3.8598,-3.8839,-3.8847,-3.8866,-3.87,-3.8704,-3.8707,-3.8832,0,-3.7731,-3.7892,-3.7926,-3.8066,-3.8146,-3.8159,-3.8239,-3.8305,-3.8345,-3.842,-3.8464,-3.855,-3.8529,-3.8563,-3.8624,-3.8673,-3.8747,-3.8665,-3.8774,-3.8778,-3.8751,-3.8888,-3.8897,-3.9012,-3.8849,-3.8852,-3.8854,0,-3.7887,-3.7963,-3.811,-3.8193,-3.8229,-3.8299,-3.8388,-3.846,-3.8536,-3.8561,-3.8623,-3.864,-3.8737,-3.8695,-3.8831,-3.8774,-3.8822,-3.8853,-3.8858,-3.8869,-3.882,-3.8902,-3.9049,-3.9066,-3.888,-3.8878,-3.8876,0,-3.7955,-3.8095,-3.8201,-3.824,-3.834,-3.839,-3.8434,-3.8508,-3.8562,-3.864,-3.8676,-3.8765,-3.8813,-3.8883,-3.8924,-3.8889,-3.9056,-3.9018,-3.908,-3.9079,-3.9113,-3.911,-3.9269,-3.9146,-3.9145,-3.9145,-3.9145,0,-3.8079,-3.8169,-3.8233,-3.8298,-3.84,-3.8438,-3.8539,-3.8583,-3.8649,-3.8724,-3.8741,-3.8812,-3.8862,-3.8941,-3.8974,-3.9081,-3.9104,-3.9127,-3.9134,-3.9124,-3.9121,-3.9154,-3.9147,-3.915,-3.9149,-3.9148,-3.9147,0,-3.8171,-3.8218,-3.8334,-3.842,-3.8443,-3.8514,-3.8588,-3.8653,-3.8694,-3.8789,-3.8814,-3.8878,-3.8971,-3.9019,-3.9136,-3.9158,-3.9279,-3.9282,-3.9252,-3.9255,-3.9314,-3.9307,-3.9499,-3.9526,-3.9386,-3.9387,-3.9388,0,-3.8246,-3.8315,-3.8408,-3.8459,-3.8504,-3.8587,-3.8642,-3.8684,-3.8741,-3.8834,-3.8888,-3.8982,-3.9059,-3.9208,-3.9266,-3.9356,-3.9361,-3.9422,-3.9375,-3.9363,-3.9361,-3.9356,-3.9363,-3.943,-3.9431,-3.9432,-3.9433,0,-3.8375,-3.8395,-3.8473,-3.856,-3.8625,-3.8696,-3.8766,-3.8807,-3.8861,-3.8924,-3.9019,-3.9079,-3.9199,-3.9292,-3.9387,-3.9434,-3.9443,-3.9448,-3.9467,-3.9457,-3.9436,-3.9447,-3.9274,-3.9443,-3.9442,-3.9441,-3.9441,-3.944,-3.846,-3.8522,-3.8597,-3.8684,-3.8741,-3.8807,-3.8872,-3.892,-3.9,-3.9099,-3.912,-3.9221,-3.9298,-3.9426,-3.9476,-3.9557,-3.9544,-3.9572,-3.9578,-3.9584,-3.9586,-3.9425,-3.9574,-3.9574,-3.9574,-3.9574,-3.9574,0,-3.8588,-3.8637,-3.8717,-3.8814,-3.8883,-3.8885,-3.8964,-3.9021,-3.9109,-3.918,-3.9255,-3.9366,-3.9457,-3.9522,-3.9616,-3.9668,-3.9674,-3.9691,-3.9687,-3.9697,-3.9593,-3.9566,-3.9684,-3.9684,-3.9684,-3.9684,-3.9684,-3.9684,-3.8663,-3.8768,-3.8797,-3.8932,-3.8981,-3.9079,-3.9123,-3.9184,-3.9241,-3.9362,-3.9438,-3.948,-3.9549,-3.9648,-3.9732,-3.975,-3.9783,-3.9799,-3.9816,-3.9717,-3.9705,-3.9694,-3.9669,-3.9806,-3.9806,-3.9914,-3.9915,-3.9916]},{"header":{"parameterUnit":"m.s-1","parameterCategory":1,"la1":30.2991,"la2":30.254,"lo1":-89.0895,"lo2":-89.0444,"dy":0.0017,"dx":0.0017,"nx":28,"ny":28,"refTime":"2023-10-25T21:00:00:Z","depth":0,"parameterNumber":3,"parameterNumberName":"V-component_of_WINDS"},"data":[0,0,0,0,0,0,0,0,0,0,0,0,0,0,0,0,0,0,0,0,0,0,0,0,0,0,0,0,0,0,0,0,0,0,0,0,0,0,0,0,0,0,0,0,0,0,0,0,0,0,0,0,0,0,0,0,0,0,1.3884,1.3886,0,1.4109,1.4112,1.4114,1.4228,1.4228,1.4228,1.4228,1.4456,1.4462,1.4468,0,0,0,0,0,0,0,0,0,0,0,0,0,1.3549,1.3554,1.3883,1.3886,1.3889,1.4109,1.4112,1.4115,1.4228,1.4228,1.4228,1.4228,1.4454,1.4461,1.4469,0,0,0,0,0,0,0,0,0,0,0,0,0,1.3726,1.3556,1.3883,1.3972,1.3982,1.4108,1.4112,1.4116,1.4228,1.4228,1.4228,1.4228,1.4452,1.4461,1.447,1.4523,0,0,1.4497,1.4501,0,0,0,0,0,0,0,0,1.3716,1.3738,1.3956,1.3966,1.3978,1.4141,1.4077,1.4252,1.4228,1.4134,1.4228,1.4228,1.4351,1.4368,1.441,1.4534,1.4544,1.4498,1.4504,1.4507,1.451,0,0,0,0,0,0,0,1.3703,1.3729,1.3973,1.3959,1.3972,1.4,1.4025,1.4111,1.4239,1.4143,1.4151,1.4177,1.4357,1.4401,1.4416,1.4547,1.4498,1.4506,1.4511,1.4515,1.4725,1.4726,0,0,0,0,0,0,1.3677,1.3718,1.3966,1.3979,1.3844,1.4006,1.4034,1.4088,1.4239,1.4262,1.4176,1.4181,1.4386,1.4406,1.4425,1.4498,1.4507,1.4516,1.4521,1.4725,1.4725,1.4726,0,0,0,0,0,0,1.3669,1.3698,1.3956,1.3851,1.3886,1.4012,1.4071,1.4092,1.4137,1.4264,1.4287,1.4198,1.4387,1.4412,1.4498,1.4507,1.452,1.4528,1.4725,1.4725,1.4726,1.4644,0,0,0,0,0,0,1.3659,1.3694,1.3717,1.3851,1.3891,1.4026,1.4072,1.4097,1.4153,1.4161,1.4291,1.4313,1.4389,1.4484,1.4507,1.452,1.4535,1.4725,1.4725,1.4725,1.4646,1.4641,1.4637,0,0,0,0,0,1.3647,1.3684,1.3717,1.3746,1.3922,1.4027,1.405,1.4138,1.4153,1.4176,1.4258,1.4309,1.4502,1.4492,1.4519,1.4534,1.4725,1.4725,1.4725,1.4648,1.4642,1.4637,0,0,0,0,0,0,1.3547,1.3703,1.3742,1.3824,1.3911,1.4046,1.4078,1.4128,1.4212,1.4217,1.4321,1.4349,1.4425,1.4489,1.4474,1.4594,1.4618,1.4624,1.455,1.4546,1.4541,1.4525,1.4543,0,0,0,0,0,1.3535,1.3608,1.374,1.3799,1.3841,1.3951,1.4,1.406,1.4155,1.4192,1.428,1.4369,1.445,1.4501,1.4583,1.4655,1.4685,1.4679,1.4674,1.467,1.4674,1.4717,1.4716,1.4727,1.4727,1.4727,0,0,1.351,1.3604,1.3644,1.3782,1.3857,1.3929,1.3982,1.4056,1.4111,1.4203,1.429,1.4357,1.4463,1.4542,1.4582,1.4597,1.4677,1.467,1.4666,1.4673,1.4717,1.4716,1.4715,1.4727,1.4727,1.4727,0,0,1.3502,1.358,1.3639,1.3713,1.3826,1.3899,1.3912,1.4039,1.4088,1.4177,1.4247,1.4313,1.445,1.4523,1.4578,1.4596,1.4646,1.4619,1.4595,1.4636,1.4635,1.4635,1.4642,1.4643,1.4623,1.4622,1.4622,0,1.3457,1.357,1.3662,1.3733,1.3792,1.3879,1.3938,1.4005,1.4138,1.4176,1.4191,1.4366,1.4443,1.4541,1.4545,1.4586,1.4605,1.4606,1.4628,1.4629,1.463,1.4637,1.464,1.4619,1.4619,1.4619,1.462,0,1.3509,1.3586,1.3619,1.3746,1.3808,1.3873,1.3974,1.4026,1.408,1.415,1.4239,1.4335,1.4437,1.4465,1.4518,1.457,1.4576,1.4608,1.4635,1.4623,1.4632,1.4636,1.4613,1.4614,1.4616,1.4616,0,0,1.3446,1.3623,1.3634,1.3693,1.3823,1.3884,1.3951,1.4052,1.4094,1.4182,1.4242,1.4355,1.4386,1.4448,1.451,1.4545,1.4554,1.4574,1.4578,1.4567,1.4617,1.4593,1.4595,1.4587,1.4588,1.4589,1.4608,0,1.3457,1.3585,1.3669,1.3763,1.3835,1.3918,1.3977,1.4062,1.413,1.42,1.4274,1.4354,1.4388,1.4426,1.4464,1.4544,1.4565,1.4544,1.4643,1.4646,1.4615,1.4599,1.4574,1.4588,1.4612,1.4613,1.4613,0,1.3488,1.3574,1.3675,1.3797,1.383,1.3882,1.3981,1.4047,1.4146,1.4192,1.4261,1.4324,1.4398,1.4417,1.452,1.4504,1.4549,1.4594,1.4597,1.461,1.4629,1.4613,1.4595,1.4597,1.462,1.4619,1.4619,0,1.3433,1.3574,1.3653,1.37,1.3844,1.3879,1.394,1.4039,1.4094,1.418,1.4216,1.4309,1.436,1.443,1.4516,1.4522,1.461,1.4636,1.4651,1.4648,1.4667,1.4665,1.4656,1.4694,1.4693,1.4693,1.4693,0,1.3437,1.3495,1.363,1.3678,1.3746,1.3842,1.3906,1.3974,1.4061,1.4123,1.42,1.4256,1.4366,1.4436,1.4503,1.4578,1.46,1.464,1.4657,1.4634,1.4629,1.4666,1.4667,1.4694,1.4694,1.4694,1.4694,0,1.3387,1.348,1.3571,1.37,1.3734,1.3778,1.3888,1.3937,1.4008,1.4086,1.411,1.4222,1.4308,1.44,1.4517,1.4562,1.4634,1.4658,1.4601,1.4611,1.4621,1.4619,1.4636,1.4644,1.4674,1.4674,1.4673,0,1.3385,1.3432,1.3565,1.3613,1.3673,1.3749,1.3805,1.3901,1.3957,1.4072,1.4107,1.4199,1.4278,1.4411,1.4502,1.4591,1.4618,1.4618,1.4632,1.4607,1.4619,1.4616,1.4621,1.4614,1.4613,1.4613,1.4612,0,1.337,1.3413,1.3493,1.3588,1.3653,1.3733,1.3815,1.3849,1.3961,1.4019,1.4109,1.4169,1.4289,1.4379,1.4479,1.4542,1.4595,1.4607,1.4615,1.4592,1.4558,1.4577,1.459,1.4606,1.4607,1.4607,1.4608,1.4608,1.3345,1.3391,1.3492,1.3578,1.3649,1.3724,1.3777,1.3855,1.3931,1.4037,1.4088,1.4177,1.4273,1.4414,1.4474,1.4544,1.4561,1.4572,1.4576,1.4577,1.4571,1.4545,1.4563,1.4563,1.4563,1.4564,1.4564,0,1.3335,1.3404,1.3482,1.3595,1.3661,1.3706,1.3799,1.3852,1.393,1.4015,1.4091,1.4193,1.4281,1.4378,1.4471,1.4508,1.4535,1.453,1.4528,1.4542,1.4551,1.4535,1.4506,1.4506,1.4506,1.4506,1.4506,1.4506,1.3338,1.3418,1.3473,1.3588,1.3657,1.3746,1.3795,1.3864,1.3933,1.4044,1.4117,1.418,1.427,1.437,1.4452,1.4478,1.4509,1.4496,1.4529,1.4537,1.4541,1.4546,1.4531,1.4502,1.4502,1.4515,1.4515,1.4515]}]]